[[{"header":{"parameterUnit":"m.s-1","parameterCategory":1,"la1":30.2991,"la2":30.254,"lo1":-89.0895,"lo2":-89.0444,"dy":0.0017,"dx":0.0017,"nx":28,"ny":28,"refTime":"2024-04-29T21:00:00:Z","depth":0,"parameterNumber":2,"parameterNumberName":"U-component_of_WINDS"},"data":[0,0,0,0,0,0,0,0,0,0,0,0,0,0,0,0,0,0,0,0,0,0,0,0,0,0,0,0,0,0,0,0,0,0,0,0,0,0,0,0,0,0,0,0,0,0,0,0,0,0,0,0,0,0,0,0,0,0,-1.7147,-1.7148,0,-1.721,-1.7211,-1.7212,-1.7185,-1.7184,-1.7182,-1.7181,-1.7246,-1.7249,-1.7252,0,0,0,0,0,0,0,0,0,0,0,0,0,-1.7005,-1.7008,-1.7147,-1.7148,-1.7149,-1.721,-1.7211,-1.7212,-1.7185,-1.7184,-1.7182,-1.718,-1.7245,-1.7249,-1.7252,0,0,0,0,0,0,0,0,0,0,0,0,0,-1.7068,-1.7009,-1.7147,-1.7143,-1.7143,-1.721,-1.7211,-1.7212,-1.7186,-1.7184,-1.7181,-1.7179,-1.7244,-1.7248,-1.7253,-1.7327,0,0,-1.7267,-1.7269,0,0,0,0,0,0,0,0,-1.7064,-1.7073,-1.7143,-1.7143,-1.7144,-1.7187,-1.7185,-1.7251,-1.7186,-1.717,-1.7181,-1.7178,-1.7228,-1.7234,-1.7251,-1.733,-1.7333,-1.7268,-1.7271,-1.7273,-1.7274,0,0,0,0,0,0,0,-1.706,-1.707,-1.7172,-1.7144,-1.7145,-1.7138,-1.7145,-1.7197,-1.7211,-1.7171,-1.7169,-1.7177,-1.7228,-1.7246,-1.7252,-1.7334,-1.7268,-1.7272,-1.7275,-1.7277,-1.7477,-1.7479,0,0,0,0,0,0,-1.7055,-1.7066,-1.717,-1.7174,-1.7097,-1.7143,-1.715,-1.7176,-1.721,-1.7213,-1.7179,-1.7175,-1.724,-1.7247,-1.7255,-1.7343,-1.7273,-1.7277,-1.728,-1.7475,-1.7478,-1.748,0,0,0,0,0,0,-1.7052,-1.7065,-1.7168,-1.712,-1.7132,-1.7148,-1.7177,-1.7178,-1.7196,-1.7216,-1.7219,-1.7195,-1.7238,-1.7248,-1.7309,-1.7345,-1.7279,-1.7283,-1.7472,-1.7475,-1.7479,-1.7521,0,0,0,0,0,0,-1.7048,-1.7064,-1.7092,-1.7121,-1.7135,-1.7221,-1.7179,-1.7181,-1.7205,-1.7201,-1.7232,-1.7235,-1.7237,-1.7302,-1.7314,-1.735,-1.7287,-1.7468,-1.7473,-1.7478,-1.7517,-1.7526,-1.7534,0,0,0,0,0,-1.7043,-1.7102,-1.7094,-1.7106,-1.7171,-1.7223,-1.7232,-1.7232,-1.7208,-1.7236,-1.7249,-1.7234,-1.7339,-1.7309,-1.7322,-1.736,-1.7466,-1.7472,-1.7477,-1.7513,-1.7524,-1.7534,0,0,0,0,0,0,-1.7078,-1.7106,-1.7097,-1.7166,-1.7192,-1.7219,-1.7255,-1.7245,-1.7279,-1.7274,-1.7274,-1.7281,-1.7344,-1.7358,-1.7324,-1.7433,-1.7399,-1.7407,-1.7421,-1.7432,-1.7441,-1.7435,-1.7291,0,0,0,0,0,-1.7093,-1.7133,-1.7156,-1.7215,-1.7228,-1.7239,-1.7262,-1.7261,-1.7288,-1.7299,-1.7316,-1.7344,-1.7383,-1.7409,-1.7446,-1.7519,-1.7525,-1.7552,-1.756,-1.7567,-1.7574,-1.7613,-1.7625,-1.7499,-1.7499,-1.7499,0,0,-1.7126,-1.7146,-1.7171,-1.7222,-1.7242,-1.7284,-1.7249,-1.7295,-1.7325,-1.7306,-1.7365,-1.7379,-1.7409,-1.7476,-1.7507,-1.749,-1.761,-1.7574,-1.758,-1.7583,-1.762,-1.7632,-1.7642,-1.7502,-1.7502,-1.7501,0,0,-1.7206,-1.7226,-1.7277,-1.7298,-1.7328,-1.7335,-1.7348,-1.7376,-1.7384,-1.7443,-1.7429,-1.7466,-1.7533,-1.7555,-1.7575,-1.7664,-1.7651,-1.7677,-1.7721,-1.7759,-1.7768,-1.7777,-1.7808,-1.7819,-1.7684,-1.7684,-1.7684,0,-1.7242,-1.7304,-1.7304,-1.7351,-1.7373,-1.7358,-1.7409,-1.743,-1.7471,-1.7487,-1.7468,-1.7552,-1.7572,-1.7643,-1.7665,-1.7682,-1.7696,-1.7672,-1.7767,-1.7776,-1.7784,-1.7813,-1.7825,-1.7686,-1.7686,-1.7686,-1.7686,0,-1.7347,-1.739,-1.7428,-1.7467,-1.7495,-1.7543,-1.7551,-1.7578,-1.7575,-1.7584,-1.7643,-1.7666,-1.7707,-1.7725,-1.7722,-1.7796,-1.7784,-1.7767,-1.7732,-1.7799,-1.7826,-1.7837,-1.769,-1.7689,-1.7689,-1.7688,0,0,-1.7449,-1.7489,-1.7503,-1.752,-1.7553,-1.7587,-1.7635,-1.7675,-1.7698,-1.7728,-1.7767,-1.7825,-1.7808,-1.7831,-1.7831,-1.7864,-1.7931,-1.7842,-1.7842,-1.7856,-1.8013,-1.8025,-1.8038,-1.7924,-1.7926,-1.7928,-1.801,0,-1.7531,-1.7615,-1.7616,-1.7693,-1.7733,-1.7719,-1.7761,-1.7786,-1.7796,-1.7831,-1.7842,-1.7882,-1.7858,-1.7871,-1.7903,-1.7916,-1.7962,-1.7911,-1.796,-1.7962,-1.7951,-1.8053,-1.8066,-1.8142,-1.8021,-1.8022,-1.8024,0,-1.7637,-1.7669,-1.775,-1.7777,-1.7793,-1.7831,-1.7867,-1.7901,-1.7929,-1.7934,-1.796,-1.7954,-1.8003,-1.7968,-1.8035,-1.7999,-1.802,-1.8029,-1.8032,-1.8036,-1.7996,-1.8057,-1.8167,-1.8178,-1.8041,-1.8039,-1.8038,0,-1.7702,-1.7766,-1.7822,-1.7838,-1.7871,-1.7898,-1.7913,-1.7938,-1.7962,-1.7994,-1.801,-1.8047,-1.8068,-1.8097,-1.8102,-1.8076,-1.8169,-1.8134,-1.8173,-1.8173,-1.8192,-1.8191,-1.8305,-1.8208,-1.8208,-1.8208,-1.8208,0,-1.7792,-1.7842,-1.7851,-1.7886,-1.7941,-1.7943,-1.7997,-1.801,-1.8033,-1.807,-1.8061,-1.8096,-1.8101,-1.8137,-1.8141,-1.8195,-1.8205,-1.821,-1.821,-1.821,-1.8209,-1.8222,-1.8216,-1.8211,-1.821,-1.821,-1.8209,0,-1.7873,-1.7882,-1.7942,-1.7968,-1.7976,-1.8016,-1.8038,-1.8071,-1.808,-1.8127,-1.8138,-1.8152,-1.8194,-1.8202,-1.8252,-1.8254,-1.8318,-1.8314,-1.8309,-1.8308,-1.8346,-1.8342,-1.8472,-1.8488,-1.8382,-1.8383,-1.8384,0,-1.7929,-1.7967,-1.7997,-1.8021,-1.8037,-1.8076,-1.81,-1.8103,-1.8129,-1.8163,-1.8192,-1.8233,-1.8265,-1.8333,-1.8347,-1.8385,-1.8381,-1.8424,-1.8386,-1.8384,-1.838,-1.8377,-1.838,-1.843,-1.8432,-1.8432,-1.8433,0,-1.8027,-1.803,-1.8065,-1.8101,-1.813,-1.8159,-1.8187,-1.8207,-1.8214,-1.8243,-1.8285,-1.831,-1.8361,-1.8401,-1.8439,-1.8454,-1.8445,-1.8445,-1.8456,-1.8455,-1.845,-1.8452,-1.8327,-1.8442,-1.8441,-1.844,-1.844,-1.844,-1.8097,-1.8129,-1.8155,-1.8194,-1.8215,-1.8241,-1.8273,-1.8286,-1.8322,-1.8362,-1.8363,-1.8409,-1.8436,-1.8485,-1.8503,-1.8539,-1.8525,-1.8541,-1.8545,-1.8548,-1.8551,-1.8446,-1.8546,-1.8546,-1.8546,-1.8545,-1.8545,0,-1.8193,-1.8209,-1.8245,-1.8284,-1.8314,-1.8303,-1.8333,-1.836,-1.84,-1.8426,-1.8458,-1.8507,-1.8546,-1.8564,-1.8602,-1.8627,-1.8624,-1.8637,-1.8634,-1.8638,-1.8562,-1.8548,-1.8639,-1.8639,-1.8639,-1.8639,-1.8639,-1.8639,-1.8246,-1.83,-1.8306,-1.8371,-1.8387,-1.8431,-1.8449,-1.8473,-1.8493,-1.8548,-1.858,-1.8591,-1.8614,-1.8654,-1.8689,-1.8693,-1.8707,-1.8722,-1.8724,-1.8653,-1.8643,-1.8634,-1.8621,-1.8725,-1.8726,-1.8797,-1.8797,-1.8798]},{"header":{"parameterUnit":"m.s-1","parameterCategory":1,"la1":30.2991,"la2":30.254,"lo1":-89.0895,"lo2":-89.0444,"dy":0.0017,"dx":0.0017,"nx":28,"ny":28,"refTime":"2024-04-29T21:00:00:Z","depth":0,"parameterNumber":3,"parameterNumberName":"V-component_of_WINDS"},"data":[0,0,0,0,0,0,0,0,0,0,0,0,0,0,0,0,0,0,0,0,0,0,0,0,0,0,0,0,0,0,0,0,0,0,0,0,0,0,0,0,0,0,0,0,0,0,0,0,0,0,0,0,0,0,0,0,0,0,-0.1905,-0.1903,0,-0.1759,-0.1758,-0.1756,-0.1734,-0.1735,-0.1737,-0.1738,-0.1581,-0.1576,-0.1571,0,0,0,0,0,0,0,0,0,0,0,0,0,-0.2154,-0.2149,-0.1905,-0.1903,-0.1901,-0.176,-0.1758,-0.1756,-0.1734,-0.1735,-0.1737,-0.1738,-0.1583,-0.1577,-0.157,0,0,0,0,0,0,0,0,0,0,0,0,0,-0.203,-0.2148,-0.1905,-0.1873,-0.1869,-0.176,-0.1758,-0.1755,-0.1733,-0.1735,-0.1737,-0.1739,-0.1585,-0.1577,-0.1569,-0.148,0,0,-0.1545,-0.1541,0,0,0,0,0,0,0,0,-0.2038,-0.2021,-0.188,-0.1875,-0.187,-0.1767,-0.1788,-0.1663,-0.1733,-0.1785,-0.1738,-0.174,-0.1641,-0.1629,-0.1597,-0.1472,-0.1466,-0.1544,-0.1539,-0.1536,-0.1533,0,0,0,0,0,0,0,-0.2046,-0.2027,-0.1847,-0.1878,-0.1872,-0.1863,-0.1848,-0.1764,-0.1703,-0.178,-0.1778,-0.1762,-0.1639,-0.1605,-0.1593,-0.1463,-0.1544,-0.1537,-0.1532,-0.1529,-0.1254,-0.1251,0,0,0,0,0,0,-0.2062,-0.2035,-0.1852,-0.1843,-0.1961,-0.1857,-0.184,-0.1798,-0.1704,-0.1692,-0.176,-0.1761,-0.1617,-0.1602,-0.1587,-0.1473,-0.1536,-0.1528,-0.1523,-0.1256,-0.1253,-0.125,0,0,0,0,0,0,-0.2067,-0.2046,-0.1858,-0.1938,-0.1914,-0.1851,-0.1804,-0.1794,-0.176,-0.1689,-0.1677,-0.1737,-0.1618,-0.1599,-0.1506,-0.1468,-0.1524,-0.1517,-0.1259,-0.1255,-0.1252,-0.1247,0,0,0,0,0,0,-0.2074,-0.2048,-0.2015,-0.1938,-0.1909,-0.1782,-0.1802,-0.179,-0.1747,-0.1747,-0.1664,-0.1652,-0.1618,-0.1518,-0.1498,-0.1458,-0.1511,-0.1262,-0.1257,-0.1253,-0.125,-0.1244,-0.1238,0,0,0,0,0,-0.2083,-0.2019,-0.2014,-0.1992,-0.1868,-0.178,-0.1763,-0.1728,-0.1744,-0.1709,-0.1663,-0.1655,-0.1476,-0.1509,-0.1486,-0.1443,-0.1264,-0.1259,-0.1253,-0.1253,-0.1245,-0.1238,0,0,0,0,0,0,-0.2092,-0.2008,-0.2002,-0.1911,-0.1853,-0.1777,-0.1732,-0.1721,-0.1655,-0.1658,-0.1614,-0.1595,-0.1504,-0.1464,-0.1503,-0.1349,-0.1371,-0.136,-0.1379,-0.137,-0.1364,-0.1375,-0.1504,0,0,0,0,0,-0.2083,-0.2022,-0.1951,-0.1877,-0.1849,-0.1795,-0.1755,-0.1733,-0.167,-0.1645,-0.1592,-0.1529,-0.1457,-0.1412,-0.1343,-0.1244,-0.1224,-0.1203,-0.1197,-0.1192,-0.1183,-0.1124,-0.1113,-0.1232,-0.1232,-0.1233,0,0,-0.2065,-0.2012,-0.1975,-0.1878,-0.183,-0.1764,-0.1775,-0.1705,-0.1654,-0.1633,-0.1543,-0.1502,-0.1428,-0.1331,-0.1286,-0.1295,-0.1145,-0.1185,-0.1182,-0.1175,-0.1118,-0.1106,-0.1096,-0.1229,-0.1229,-0.123,0,0,-0.1997,-0.1952,-0.1885,-0.1837,-0.1765,-0.1729,-0.1713,-0.1637,-0.161,-0.1519,-0.1501,-0.1438,-0.1318,-0.1265,-0.1223,-0.1132,-0.112,-0.111,-0.1077,-0.1021,-0.1011,-0.1003,-0.0968,-0.0956,-0.1102,-0.1102,-0.1102,0,-0.1982,-0.1885,-0.1851,-0.1781,-0.1737,-0.1717,-0.1646,-0.16,-0.1508,-0.1477,-0.1489,-0.1335,-0.1284,-0.1174,-0.1151,-0.1118,-0.1095,-0.1119,-0.1016,-0.1007,-0.0999,-0.0964,-0.0952,-0.1101,-0.1101,-0.1101,-0.1101,0,-0.1869,-0.1801,-0.1755,-0.1669,-0.1619,-0.1549,-0.1501,-0.1455,-0.1436,-0.1398,-0.1303,-0.1241,-0.1158,-0.113,-0.111,-0.1015,-0.1022,-0.1026,-0.1047,-0.0987,-0.0954,-0.0941,-0.1099,-0.11,-0.11,-0.11,0,0,-0.1803,-0.1699,-0.1682,-0.1641,-0.1559,-0.1504,-0.1431,-0.1352,-0.1312,-0.1248,-0.1184,-0.1081,-0.1083,-0.1034,-0.1008,-0.0959,-0.0887,-0.0967,-0.0965,-0.0953,-0.0774,-0.0771,-0.0757,-0.0879,-0.0877,-0.0875,-0.078,0,-0.1725,-0.1598,-0.1564,-0.1454,-0.1389,-0.1368,-0.1303,-0.1244,-0.1206,-0.1142,-0.1098,-0.1026,-0.1035,-0.1005,-0.0955,-0.0907,-0.085,-0.0913,-0.0815,-0.0812,-0.0834,-0.074,-0.0738,-0.0651,-0.0767,-0.0765,-0.0763,0,-0.1617,-0.1553,-0.1438,-0.1362,-0.1333,-0.1277,-0.1199,-0.114,-0.107,-0.1045,-0.099,-0.0968,-0.0887,-0.0913,-0.0799,-0.0842,-0.08,-0.0769,-0.0765,-0.0753,-0.0784,-0.0724,-0.0623,-0.061,-0.0743,-0.0745,-0.0746,0,-0.1578,-0.1463,-0.1378,-0.1344,-0.1254,-0.1214,-0.1174,-0.1107,-0.1061,-0.0992,-0.096,-0.0882,-0.0839,-0.0777,-0.0732,-0.0756,-0.0621,-0.0644,-0.0595,-0.0596,-0.0567,-0.0569,-0.0456,-0.0542,-0.0543,-0.0543,-0.0543,0,-0.1493,-0.1423,-0.136,-0.1308,-0.1227,-0.1186,-0.1106,-0.1064,-0.1004,-0.0941,-0.0917,-0.0857,-0.0803,-0.0734,-0.0698,-0.0607,-0.0588,-0.0563,-0.0554,-0.0565,-0.0568,-0.0536,-0.054,-0.0539,-0.054,-0.0541,-0.0541,0,-0.1436,-0.1392,-0.1298,-0.122,-0.1198,-0.1142,-0.1073,-0.102,-0.098,-0.09,-0.0878,-0.0815,-0.0733,-0.0683,-0.0579,-0.0554,-0.0453,-0.0447,-0.0478,-0.0473,-0.0426,-0.0431,-0.0287,-0.0265,-0.0368,-0.0367,-0.0366,0,-0.1385,-0.133,-0.1247,-0.1204,-0.1164,-0.1095,-0.1047,-0.1003,-0.0954,-0.0869,-0.0825,-0.0742,-0.0673,-0.0542,-0.0485,-0.0404,-0.0394,-0.035,-0.0382,-0.0393,-0.0391,-0.0394,-0.0387,-0.0344,-0.0343,-0.0342,-0.0342,0,-0.1297,-0.1277,-0.1211,-0.1136,-0.108,-0.1018,-0.0957,-0.0922,-0.0867,-0.0812,-0.0729,-0.0676,-0.0569,-0.0485,-0.0399,-0.0354,-0.0337,-0.0332,-0.0316,-0.0325,-0.0344,-0.0331,-0.0461,-0.0335,-0.0336,-0.0337,-0.0337,-0.0337,-0.1239,-0.1189,-0.1122,-0.1048,-0.0997,-0.0939,-0.0884,-0.0838,-0.0769,-0.0681,-0.0658,-0.057,-0.0497,-0.038,-0.0333,-0.0261,-0.0267,-0.0244,-0.0238,-0.0233,-0.0231,-0.0357,-0.0245,-0.0245,-0.0245,-0.0245,-0.0245,0,-0.1148,-0.1104,-0.1037,-0.0951,-0.0892,-0.0884,-0.0814,-0.0764,-0.0688,-0.0623,-0.0556,-0.0459,-0.0377,-0.0312,-0.0227,-0.0181,-0.0171,-0.016,-0.0162,-0.0151,-0.0231,-0.0253,-0.017,-0.017,-0.017,-0.017,-0.017,-0.017,-0.1094,-0.1008,-0.0979,-0.0865,-0.082,-0.0736,-0.0696,-0.0641,-0.0589,-0.0482,-0.0415,-0.0374,-0.0308,-0.0217,-0.014,-0.0123,-0.0091,-0.0082,-0.0062,-0.0138,-0.0146,-0.0154,-0.0174,-0.0076,-0.0076,0.0012,0.0013,0.0013]}]]